Preview of NWS' New Version of Forecast
This preview is not operational and should not be used for support decisions.

Regional Weather Roundup (RWR)

Issued by National Weather Service (NWS)

                            
000
ASUS46 KSEW 190110
RWRWA 

WASHINGTON REGIONAL WEATHER ROUNDUP
NATIONAL WEATHER SERVICE SEATTLE WA
600 PM PDT THU APR 18 2019

NOTE:"FAIR" INDICATES FEW OR NO CLOUDS BELOW 12,000 FEET WITH NO 
SIGNIFICANT WEATHER AND/OR OBSTRUCTIONS TO VISIBILITY.

WAZ507-509-555>559-190200-
SEATTLE, TACOMA, EVERETT, AND VICINITY
  
CITY           SKY/WX    TMP DP  RH WIND       PRES   REMARKS
EVERETT        CLOUDY    61  49  64 S18G24    30.08F                  
BOEING FIELD   CLOUDY    62  48  60 S7        30.08F                  
RENTON         CLOUDY    64  49  57 S7        30.08F                  
SEATAC AIRPORT CLOUDY    61  48  62 SW8       30.09F                  
JBLM-MCCHORD   NOT AVBL                                               
PUYALLUP       PTSUNNY   66  54  63 CALM      30.09F                  
BREMERTON      CLOUDY    57  53  86 SW10      30.10F                  
JBLM-FT LEWIS  PTSUNNY   63  58  84 W8        30.09F                  
TACOMA NARROWS PTSUNNY   61  52  72 W7        30.10F                  
$$
 
WAZ001-503-506-510-514-515-190200-
NORTH INTERIOR
  
CITY           SKY/WX    TMP DP  RH WIND       PRES   REMARKS
BELLINGHAM     LGT RAIN  54  51  90 SE6       30.08F FOG              
FRIDAY HARBOR  RAIN      54  52  93 CALM      30.10S FOG              
EASTSOUND      RAIN      54  54 100 S10       30.07F                  
PORT ANGELES   CLOUDY    55  51  86 CALM      30.09F                  
EDIZ HOOK      CLOUDY    52  50  93 CALM      30.09F                  
PORT TOWNSEND  CLOUDY    54  50  87 NW8       30.08R                  
NAS WHIDBEY    CLOUDY    58  51  78 CALM      30.11F                  
ARLINGTON      CLOUDY    57  54  89 N6        30.08F                  
BURLINGTON     CLOUDY    55  54  94 NW3       30.08F                  
$$
 
WAZ020-022-039-040-504-511-512-190200-
SOUTHWEST INTERIOR
  
CITY           SKY/WX    TMP DP  RH WIND       PRES   REMARKS
SHELTON        CLOUDY    57  54  89 SW9       30.09F FOG              
OLYMPIA        CLOUDY    64  53  67 N7        30.09F                  
CHEHALIS       FAIR      70  55  60 NW5       30.09S                  
KELSO          MOSUNNY   69  54  58 W15       30.10R                  
VANCOUVER      MOSUNNY   74  48  39 CALM      30.06F                  
SCAPPOOSE, OR  MOSUNNY   74  53  48 SE6       30.07F                  
PORTLAND, OR   PTSUNNY   75  47  36 CALM      30.07F                  
$$
 
WAZ021-516-517-190200-
WASHINGTON COAST
  
CITY           SKY/WX    TMP DP  RH WIND       PRES   REMARKS
FORKS          LGT RAIN  52  51  97 VRB7      30.10F FOG              
HOQUIAM        LGT RAIN  53  53 100 W3        30.14S FOG              
ASTORIA, OR    CLOUDY    58  51  78 W10       30.13F                  
$$
 
WAZ019-023-024-040-567>569-190200-
CASCADE MOUNTAINS AND COLUMBIA GORGE
  
CITY           SKY/WX    TMP DP  RH WIND       PRES   REMARKS
STAMPEDE PASS  CLOUDY    53  43  68 CALM      30.14F                  
TROUTDALE, OR  MOSUNNY   76  50  40 NE5       30.07F                  
HOOD RIVER, OR PTCLDY    73  46  38 MISG      30.05F                  
THE DALLES, OR MOSUNNY   78  52  40 NW8       30.03F                  
$$

WAZ026-027-041>044-520-521-190200-
EAST SLOPES
  
CITY           SKY/WX    TMP DP  RH WIND       PRES   REMARKS
OMAK           CLOUDY    67  47  48 S13G20    30.03F                  
WENATCHEE      CLOUDY    68  45  43 VRB3      30.05F                  
ELLENSBURG     PTSUNNY   69  48  47 NW8       30.07F                  
YAKIMA         MOSUNNY   75  48  38 S7        30.03F                  
SUNNYSIDE ARPT CLEAR     77  51  39 CALM      30.02F                  
YAKIMA TC      FAIR      74  45  35 CALM      30.03F                  
$$

WAZ028-034-035-190200-
COLUMBIA BASIN
  
CITY           SKY/WX    TMP DP  RH WIND       PRES   REMARKS
EPHRATA        MOSUNNY   73  47  39 S8        30.05F                  
MOSES LAKE     MOSUNNY   75  47  36 S12       30.06F                  
PASCO          MOSUNNY   82  46  28 SW10      30.03F                  
RICHLAND ARPT  CLEAR     80  48  32 SE7       30.03F                  
HERMISTON, OR  PTSUNNY   79  50  36 S3        30.03F                  
$$

WAZ036>038-190200-
NORTHEAST WASHINGTON
  
CITY           SKY/WX    TMP DP  RH WIND       PRES   REMARKS
SPOKANE GEIGER PTSUNNY   65  44  46 SW15      30.11F                  
SPOKANE FELTS  PTSUNNY   68  44  42 SW9       30.10F                  
FAIRCHILD AFB  PTSUNNY   64  46  52 S8        30.10F                  
COEURDALENE,ID PTSUNNY   64  46  52 S9        30.11F                  
DEER PARK      PTSUNNY   63  42  46 NE5       30.11F                  
$$

WAZ029>033-190200-
SOUTHEAST WASHINGTON
  
CITY           SKY/WX    TMP DP  RH WIND       PRES   REMARKS
PULLMAN        CLOUDY    67  46  47 SW5       30.14F                  
LEWISTON, ID   SUNNY     75  46  35 NW3       30.09F                  
WALLA WALLA    MOSUNNY   75  48  38 N5        30.07F                  
PENDLETON, OR  PTSUNNY   74  50  42 NE3       30.07F                  
$$